| time (UTC) | temp F | wind direction | speed MPH | gust MPH | rain 1hr in | rain 24hr in | rain mn in | humidity % | barometer mb |
| 20260506051004 | 64 | 106 | 12.0 | 18.0 | 0.00 | 0.00 | 0.00 | 86 | 1010.3 |
| 20260506050504 | 64 | 103 | 14.0 | 18.0 | 0.00 | 0.00 | 0.00 | 86 | 1010.3 |
| 20260506044504 | 64 | 105 | 16.0 | 19.0 | 0.00 | 0.00 | 0.00 | 88 | 1009.3 |
| 20260506044004 | 64 | 107 | 16.0 | 21.0 | 0.00 | 0.00 | 0.00 | 89 | 1009.3 |
| 20260506043504 | 64 | 100 | 17.0 | 21.0 | 0.00 | 0.00 | 0.00 | 89 | 1009.3 |
| 20260506043216 | 64 | 90 | 17.0 | 21.0 | 0.00 | 0.00 | 0.00 | 89 | 1009.3 |
| 20260506042714 | 64 | 94 | 16.0 | 21.0 | 0.00 | 0.00 | 0.00 | 90 | 1009.3 |
| 20260506042217 | 64 | 104 | 16.0 | 21.0 | 0.00 | 0.00 | 0.00 | 90 | 1009.3 |
| 20260506041503 | 64 | 109 | 14.0 | 20.0 | 0.00 | 0.00 | 0.00 | 91 | 1009.3 |
| 20260506041004 | 64 | 104 | 14.0 | 18.0 | 0.00 | 0.00 | 0.00 | 91 | 1010.3 |
| 20260506040716 | 64 | 107 | 13.0 | 18.0 | 0.00 | 0.00 | 0.00 | 91 | 1010.3 |
| 20260506040214 | 64 | 104 | 13.0 | 19.0 | 0.00 | 0.00 | 0.00 | 91 | 1010.3 |
| 20260506035503 | 64 | 98 | 13.0 | 20.0 | 0.00 | 0.00 | 0.00 | 91 | 1010.3 |
| 20260506035214 | 64 | 103 | 13.0 | 20.0 | 0.00 | 0.00 | 0.00 | 91 | 1010.3 |
| 20260506034503 | 64 | 121 | 12.0 | 20.0 | 0.00 | 0.00 | 0.00 | 91 | 1010.3 |
| 20260506034216 | 64 | 118 | 11.0 | 15.0 | 0.00 | 0.00 | 0.00 | 91 | 1010.3 |
| 20260506033503 | 64 | 106 | 12.0 | 19.0 | 0.00 | 0.00 | 0.00 | 91 | 1010.3 |
| 20260506033217 | 64 | 103 | 13.0 | 19.0 | 0.00 | 0.00 | 0.00 | 91 | 1010.3 |
| 20260506032503 | 64 | 117 | 10.0 | 16.0 | 0.00 | 0.00 | 0.00 | 91 | 1010.3 |
| 20260506032004 | 64 | 125 | 9.0 | 14.0 | 0.00 | 0.00 | 0.00 | 90 | 1010.3 |
| 20260506031715 | 64 | 132 | 9.0 | 12.0 | 0.00 | 0.00 | 0.00 | 90 | 1010.3 |
| 20260506031003 | 64 | 131 | 12.0 | 21.0 | 0.00 | 0.00 | 0.00 | 90 | 1010.3 |
| 20260506030716 | 64 | 126 | 13.0 | 21.0 | 0.00 | 0.00 | 0.00 | 90 | 1010.3 |
| 20260506030003 | 64 | 121 | 11.0 | 14.0 | 0.00 | 0.00 | 0.00 | 90 | 1010.3 |
| 20260506025503 | 64 | 127 | 11.0 | 16.0 | 0.00 | 0.00 | 0.00 | 90 | 1010.3 |
| 20260506025215 | 64 | 134 | 12.0 | 18.0 | 0.00 | 0.00 | 0.00 | 90 | 1010.3 |
| 20260506024503 | 64 | 136 | 14.0 | 18.0 | 0.00 | 0.00 | 0.00 | 89 | 1010.3 |
| 20260506024004 | 64 | 143 | 12.0 | 17.0 | 0.00 | 0.00 | 0.00 | 89 | 1010.3 |
| 20260506023503 | 64 | 138 | 11.0 | 17.0 | 0.00 | 0.00 | 0.00 | 89 | 1010.3 |
| 20260506023004 | 64 | 121 | 12.0 | 17.0 | 0.00 | 0.00 | 0.00 | 89 | 1010.3 |
| 20260506022505 | 64 | 120 | 12.0 | 18.0 | 0.00 | 0.00 | 0.00 | 89 | 1010.3 |
| 20260506022004 | 64 | 126 | 11.0 | 18.0 | 0.00 | 0.00 | 0.00 | 89 | 1010.3 |
| 20260506021504 | 64 | 114 | 10.0 | 14.0 | 0.00 | 0.00 | 0.00 | 89 | 1010.3 |
| 20260506021006 | 64 | 109 | 11.0 | 17.0 | 0.00 | 0.00 | 0.00 | 89 | 1010.3 |
| 20260506020504 | 64 | 125 | 9.0 | 17.0 | 0.00 | 0.00 | 0.00 | 89 | 1010.3 |
| 20260506020004 | 64 | 109 | 10.0 | 15.0 | 0.00 | 0.00 | 0.00 | 88 | 1010.3 |
| 20260506015504 | 64 | 120 | 13.0 | 18.0 | 0.00 | 0.00 | 0.00 | 88 | 1010.3 |
| 20260506015004 | 64 | 139 | 13.0 | 18.0 | 0.00 | 0.00 | 0.00 | 88 | 1010.3 |
| 20260506014714 | 64 | 136 | 12.0 | 17.0 | 0.00 | 0.00 | 0.00 | 88 | 1010.3 |
| 20260506014004 | 65 | 146 | 12.0 | 18.0 | 0.00 | 0.00 | 0.00 | 88 | 1010.3 |
| 20260506013715 | 65 | 149 | 12.0 | 18.0 | 0.00 | 0.00 | 0.00 | 88 | 1010.3 |
| 20260506013004 | 65 | 143 | 11.0 | 14.0 | 0.00 | 0.00 | 0.00 | 88 | 1010.3 |
| 20260506012504 | 65 | 154 | 9.0 | 13.0 | 0.00 | 0.00 | 0.00 | 88 | 1010.3 |
| 20260506012004 | 65 | 163 | 9.0 | 12.0 | 0.00 | 0.00 | 0.00 | 88 | 1010.3 |
| 20260506011504 | 65 | 143 | 9.0 | 15.0 | 0.00 | 0.00 | 0.00 | 88 | 1010.3 |
| 20260506011004 | 64 | 135 | 10.0 | 15.0 | 0.00 | 0.00 | 0.00 | 88 | 1009.3 |
| 20260506010718 | 64 | 124 | 11.0 | 16.0 | 0.00 | 0.00 | 0.00 | 88 | 1009.3 |
| 20260506010004 | 64 | 102 | 14.0 | 18.0 | 0.00 | 0.00 | 0.00 | 88 | 1009.3 |
| 20260506005504 | 64 | 90 | 15.0 | 21.0 | 0.00 | 0.00 | 0.00 | 88 | 1009.3 |
| 20260506005003 | 64 | 88 | 15.0 | 21.0 | 0.00 | 0.00 | 0.00 | 88 | 1009.3 |
| 20260506004504 | 64 | 105 | 15.0 | 23.0 | 0.00 | 0.00 | 0.00 | 89 | 1009.3 |
| 20260506004003 | 64 | 104 | 16.0 | 23.0 | 0.00 | 0.00 | 0.00 | 89 | 1009.3 |
| 20260506003503 | 64 | 106 | 19.0 | 27.0 | 0.00 | 0.00 | 0.00 | 89 | 1009.3 |
| 20260506003003 | 64 | 104 | 19.0 | 27.0 | 0.00 | 0.00 | 0.00 | 89 | 1009.3 |
| 20260506002503 | 64 | 92 | 18.0 | 23.0 | 0.00 | 0.00 | 0.00 | 89 | 1009.3 |
| 20260506002003 | 65 | 96 | 18.0 | 24.0 | 0.00 | 0.00 | 0.00 | 88 | 1009.3 |
| 20260506001504 | 65 | 108 | 19.0 | 24.0 | 0.00 | 0.00 | 0.00 | 88 | 1009.3 |
| 20260506001003 | 65 | 114 | 19.0 | 24.0 | 0.00 | 0.00 | 0.00 | 88 | 1010.3 |
| 20260506000504 | 65 | 116 | 17.0 | 24.0 | 0.00 | 0.00 | 0.00 | 88 | 1010.3 |
| 20260506000003 | 65 | 109 | 17.0 | 25.0 | 0.00 | 0.00 | 0.00 | 88 | 1010.3 |
| 20260505235505 | 65 | 111 | 16.0 | 25.0 | 0.00 | 0.00 | 0.00 | 88 | 1010.3 |
| 20260505235003 | 65 | 125 | 16.0 | 21.0 | 0.00 | 0.00 | 0.00 | 88 | 1010.3 |
| 20260505234715 | 65 | 130 | 16.0 | 21.0 | 0.00 | 0.00 | 0.00 | 88 | 1010.3 |
| 20260505234003 | 65 | 127 | 13.0 | 23.0 | 0.00 | 0.00 | 0.00 | 89 | 1010.3 |
| 20260505233716 | 65 | 123 | 14.0 | 23.0 | 0.00 | 0.00 | 0.00 | 89 | 1010.3 |
| 20260505233003 | 65 | 128 | 16.0 | 21.0 | 0.00 | 0.00 | 0.00 | 89 | 1010.3 |
| 20260505232503 | 65 | 128 | 15.0 | 21.0 | 0.00 | 0.00 | 0.00 | 89 | 1010.3 |
| 20260505232003 | 65 | 137 | 16.0 | 24.0 | 0.00 | 0.00 | 0.00 | 89 | 1010.3 |
| 20260505231503 | 65 | 137 | 15.0 | 24.0 | 0.00 | 0.00 | 0.00 | 89 | 1010.3 |
| 20260505231003 | 65 | 129 | 14.0 | 18.0 | 0.00 | 0.00 | 0.00 | 90 | 1010.3 |
| 20260505230503 | 65 | 115 | 13.0 | 20.0 | 0.00 | 0.00 | 0.00 | 90 | 1010.3 |
| 20260505230003 | 65 | 124 | 13.0 | 24.0 | 0.00 | 0.00 | 0.00 | 90 | 1010.3 |
| 20260505225504 | 65 | 127 | 17.0 | 24.0 | 0.00 | 0.00 | 0.00 | 90 | 1010.3 |
| 20260505225218 | 65 | 126 | 17.0 | 22.0 | 0.00 | 0.00 | 0.00 | 91 | 1010.3 |
| 20260505224504 | 65 | 119 | 14.0 | 21.0 | 0.00 | 0.00 | 0.00 | 91 | 1010.3 |
| 20260505224004 | 65 | 128 | 12.0 | 21.0 | 0.00 | 0.00 | 0.00 | 91 | 1010.3 |
| 20260505223504 | 65 | 133 | 14.0 | 21.0 | 0.00 | 0.00 | 0.00 | 91 | 1010.3 |
| 20260505223004 | 65 | 125 | 15.0 | 21.0 | 0.00 | 0.00 | 0.00 | 91 | 1010.3 |
| 20260505222504 | 65 | 117 | 15.0 | 21.0 | 0.00 | 0.00 | 0.00 | 91 | 1010.3 |
| 20260505222217 | 65 | 108 | 16.0 | 21.0 | 0.00 | 0.00 | 0.00 | 91 | 1010.3 |
| 20260505221504 | 65 | 113 | 15.0 | 21.0 | 0.00 | 0.00 | 0.00 | 91 | 1010.3 |
| 20260505221004 | 65 | 114 | 14.0 | 20.0 | 0.00 | 0.00 | 0.00 | 91 | 1010.3 |
| 20260505220504 | 65 | 103 | 13.0 | 21.0 | 0.00 | 0.00 | 0.00 | 91 | 1010.3 |
| 20260505220004 | 65 | 113 | 15.0 | 21.0 | 0.00 | 0.00 | 0.00 | 91 | 1010.3 |
| 20260505215504 | 65 | 119 | 18.0 | 23.0 | 0.00 | 0.00 | 0.00 | 91 | 1010.3 |
| 20260505215004 | 65 | 120 | 17.0 | 23.0 | 0.00 | 0.00 | 0.00 | 90 | 1010.3 |
| 20260505214504 | 65 | 127 | 18.0 | 28.0 | 0.00 | 0.00 | 0.00 | 90 | 1010.3 |
| 20260505214004 | 65 | 132 | 16.0 | 28.0 | 0.00 | 0.00 | 0.00 | 90 | 1010.3 |
| 20260505213504 | 65 | 124 | 13.0 | 18.0 | 0.00 | 0.00 | 0.00 | 90 | 1010.3 |
| 20260505213004 | 65 | 117 | 15.0 | 18.0 | 0.00 | 0.00 | 0.00 | 90 | 1010.3 |
| 20260505212504 | 65 | 115 | 14.0 | 23.0 | 0.00 | 0.00 | 0.00 | 89 | 1010.3 |
| 20260505212216 | 65 | 107 | 14.0 | 23.0 | 0.00 | 0.00 | 0.00 | 89 | 1010.3 |
| 20260505211503 | 65 | 107 | 17.0 | 20.0 | 0.00 | 0.00 | 0.00 | 89 | 1010.3 |
| 20260505211217 | 65 | 110 | 16.0 | 20.0 | 0.00 | 0.00 | 0.00 | 89 | 1010.3 |
| 20260505210504 | 65 | 123 | 14.0 | 18.0 | 0.00 | 0.00 | 0.00 | 89 | 1010.3 |
| 20260505210004 | 65 | 135 | 14.0 | 20.0 | 0.00 | 0.00 | 0.00 | 89 | 1010.3 |
| 20260505205503 | 65 | 134 | 12.0 | 20.0 | 0.00 | 0.00 | 0.00 | 88 | 1011.3 |
| 20260505205214 | 65 | 134 | 12.0 | 20.0 | 0.00 | 0.00 | 0.00 | 88 | 1011.3 |
| 20260505204503 | 65 | 134 | 14.0 | 20.0 | 0.00 | 0.00 | 0.00 | 88 | 1011.3 |
| 20260505204003 | 65 | 121 | 14.0 | 21.0 | 0.00 | 0.00 | 0.00 | 88 | 1011.3 |
| 20260505203503 | 65 | 126 | 14.0 | 21.0 | 0.00 | 0.00 | 0.00 | 88 | 1011.3 |
| 20260505203004 | 65 | 124 | 13.0 | 19.0 | 0.00 | 0.00 | 0.00 | 88 | 1011.3 |
| 20260505202504 | 65 | 114 | 13.0 | 18.0 | 0.00 | 0.00 | 0.00 | 87 | 1011.3 |
| 20260505202003 | 65 | 125 | 13.0 | 21.0 | 0.00 | 0.00 | 0.00 | 87 | 1011.3 |
| 20260505201504 | 65 | 134 | 14.0 | 21.0 | 0.00 | 0.00 | 0.00 | 87 | 1011.3 |
| 20260505201003 | 65 | 123 | 14.0 | 20.0 | 0.00 | 0.00 | 0.00 | 87 | 1011.3 |
| 20260505200504 | 65 | 126 | 16.0 | 20.0 | 0.00 | 0.00 | 0.00 | 86 | 1011.3 |
| 20260505200003 | 65 | 137 | 16.0 | 20.0 | 0.00 | 0.00 | 0.00 | 86 | 1011.3 |
| 20260505195503 | 65 | 134 | 14.0 | 19.0 | 0.00 | 0.00 | 0.00 | 86 | 1011.3 |
| 20260505195003 | 65 | 117 | 12.0 | 21.0 | 0.00 | 0.00 | 0.00 | 86 | 1011.3 |
| 20260505194503 | 65 | 114 | 12.0 | 21.0 | 0.00 | 0.00 | 0.00 | 85 | 1011.3 |
| 20260505194003 | 65 | 121 | 13.0 | 21.0 | 0.00 | 0.00 | 0.00 | 85 | 1011.3 |
| 20260505193503 | 65 | 128 | 13.0 | 21.0 | 0.00 | 0.00 | 0.00 | 85 | 1011.3 |
| 20260505193003 | 65 | 137 | 12.0 | 16.0 | 0.00 | 0.00 | 0.00 | 84 | 1011.3 |
| 20260505192503 | 65 | 143 | 12.0 | 18.0 | 0.00 | 0.00 | 0.00 | 84 | 1011.3 |
| 20260505192212 | 65 | 137 | 13.0 | 19.0 | 0.00 | 0.00 | 0.00 | 84 | 1011.3 |
| 20260505191503 | 65 | 138 | 13.0 | 19.0 | 0.00 | 0.00 | 0.00 | 84 | 1011.3 |
| 20260505191003 | 65 | 133 | 12.0 | 19.0 | 0.00 | 0.00 | 0.00 | 84 | 1011.3 |
| 20260505190504 | 65 | 123 | 12.0 | 19.0 | 0.00 | 0.00 | 0.00 | 83 | 1011.3 |
| 20260505190004 | 65 | 121 | 13.0 | 19.0 | 0.00 | 0.00 | 0.00 | 83 | 1011.3 |
| 20260505185504 | 65 | 113 | 12.0 | 18.0 | 0.00 | 0.00 | 0.00 | 83 | 1010.3 |
| 20260505185004 | 65 | 114 | 11.0 | 18.0 | 0.00 | 0.00 | 0.00 | 83 | 1010.3 |
| 20260505184504 | 65 | 118 | 10.0 | 17.0 | 0.00 | 0.00 | 0.00 | 82 | 1010.3 |
| 20260505184004 | 65 | 126 | 12.0 | 18.0 | 0.00 | 0.00 | 0.00 | 82 | 1011.3 |
| 20260505183714 | 65 | 140 | 13.0 | 18.0 | 0.00 | 0.00 | 0.00 | 82 | 1011.3 |
| 20260505183004 | 65 | 148 | 13.0 | 17.0 | 0.00 | 0.00 | 0.00 | 82 | 1011.3 |
| 20260505182505 | 65 | 138 | 9.0 | 17.0 | 0.00 | 0.00 | 0.00 | 82 | 1011.3 |
| 20260505182218 | 65 | 138 | 9.0 | 13.0 | 0.00 | 0.00 | 0.00 | 82 | 1011.3 |
| 20260505181504 | 65 | 115 | 9.0 | 13.0 | 0.00 | 0.00 | 0.00 | 82 | 1011.3 |
| 20260505181004 | 65 | 115 | 9.0 | 14.0 | 0.00 | 0.00 | 0.00 | 81 | 1011.3 |
| 20260505180717 | 65 | 122 | 10.0 | 19.0 | 0.00 | 0.00 | 0.00 | 81 | 1011.3 |
| 20260505180004 | 65 | 116 | 11.0 | 19.0 | 0.00 | 0.00 | 0.00 | 81 | 1011.3 |
| 20260505175504 | 65 | 111 | 11.0 | 17.0 | 0.00 | 0.00 | 0.00 | 81 | 1011.3 |
| 20260505175004 | 65 | 109 | 11.0 | 17.0 | 0.00 | 0.00 | 0.00 | 81 | 1011.3 |
| 20260505174504 | 65 | 103 | 12.0 | 18.0 | 0.00 | 0.00 | 0.00 | 81 | 1011.3 |
| 20260505174004 | 65 | 109 | 12.0 | 18.0 | 0.00 | 0.00 | 0.00 | 81 | 1011.3 |
| 20260505173715 | 65 | 116 | 11.0 | 18.0 | 0.00 | 0.00 | 0.00 | 81 | 1011.3 |
| 20260505173004 | 65 | 119 | 12.0 | 17.0 | 0.00 | 0.00 | 0.00 | 80 | 1011.3 |
| 20260505172504 | 65 | 119 | 12.0 | 17.0 | 0.00 | 0.00 | 0.00 | 80 | 1011.3 |
| 20260505172004 | 65 | 126 | 10.0 | 16.0 | 0.00 | 0.00 | 0.00 | 80 | 1011.3 |
| 20260505171503 | 65 | 122 | 10.0 | 15.0 | 0.00 | 0.00 | 0.00 | 79 | 1011.3 |
| 20260505171004 | 65 | 125 | 10.0 | 15.0 | 0.00 | 0.00 | 0.00 | 79 | 1011.3 |
| 20260505170503 | 65 | 117 | 10.0 | 13.0 | 0.00 | 0.00 | 0.00 | 79 | 1011.3 |
| 20260505170216 | 65 | 116 | 11.0 | 16.0 | 0.00 | 0.00 | 0.00 | 79 | 1011.3 |
| 20260505165503 | 66 | 113 | 12.0 | 17.0 | 0.00 | 0.00 | 0.00 | 79 | 1011.3 |
| 20260505165004 | 66 | 111 | 12.0 | 17.0 | 0.00 | 0.00 | 0.00 | 79 | 1011.3 |
| 20260505164504 | 66 | 118 | 11.0 | 16.0 | 0.00 | 0.00 | 0.00 | 79 | 1011.3 |
| 20260505164003 | 66 | 115 | 10.0 | 14.0 | 0.00 | 0.00 | 0.00 | 78 | 1011.3 |
| 20260505163503 | 66 | 109 | 10.0 | 14.0 | 0.00 | 0.00 | 0.00 | 77 | 1011.3 |
| 20260505163003 | 66 | 110 | 10.0 | 14.0 | 0.00 | 0.00 | 0.00 | 77 | 1011.3 |
| 20260505162503 | 67 | 122 | 10.0 | 14.0 | 0.00 | 0.00 | 0.00 | 77 | 1011.3 |
| 20260505162003 | 67 | 132 | 9.0 | 14.0 | 0.00 | 0.00 | 0.00 | 77 | 1011.3 |
| 20260505161504 | 67 | 127 | 9.0 | 12.0 | 0.00 | 0.00 | 0.00 | 77 | 1011.3 |
| 20260505161003 | 67 | 123 | 9.0 | 12.0 | 0.00 | 0.00 | 0.00 | 77 | 1011.3 |
| 20260505160713 | 67 | 130 | 9.0 | 12.0 | 0.00 | 0.00 | 0.00 | 77 | 1011.3 |
| 20260505153003 | 68 | 112 | 10.0 | 14.0 | 0.00 | 0.00 | 0.00 | 77 | 1012.3 |
| 20260505152503 | 68 | 139 | 9.0 | 15.0 | 0.00 | 0.00 | 0.00 | 77 | 1011.3 |
| 20260505152003 | 68 | 156 | 10.0 | 15.0 | 0.00 | 0.00 | 0.00 | 76 | 1011.3 |
| 20260505151503 | 68 | 149 | 11.0 | 15.0 | 0.00 | 0.00 | 0.00 | 76 | 1011.3 |
| 20260505151217 | 68 | 145 | 11.0 | 15.0 | 0.00 | 0.00 | 0.00 | 76 | 1011.3 |
| 20260505150505 | 68 | 141 | 11.0 | 14.0 | 0.00 | 0.00 | 0.00 | 76 | 1011.3 |
| 20260505140504 | 68 | 146 | 12.0 | 17.0 | 0.00 | 0.00 | 0.00 | 75 | 1012.3 |
| 20260505130213 | 69 | 141 | 11.0 | 15.0 | 0.00 | 0.00 | 0.00 | 74 | 1012.3 |
| 20260505124503 | 69 | 137 | 10.0 | 13.0 | 0.00 | 0.00 | 0.00 | 74 | 1012.3 |
| 20260505124003 | 69 | 148 | 13.0 | 20.0 | 0.00 | 0.00 | 0.00 | 74 | 1012.3 |
| 20260505123503 | 68 | 147 | 14.0 | 20.0 | 0.00 | 0.00 | 0.00 | 74 | 1012.3 |
| 20260505123004 | 69 | 139 | 12.0 | 15.0 | 0.00 | 0.00 | 0.00 | 74 | 1012.3 |
| 20260505122714 | 69 | 138 | 13.0 | 17.0 | 0.00 | 0.00 | 0.00 | 74 | 1012.3 |
| 20260505122003 | 69 | 135 | 11.0 | 17.0 | 0.00 | 0.00 | 0.00 | 75 | 1013.3 |
| 20260505121503 | 69 | 133 | 10.0 | 17.0 | 0.00 | 0.00 | 0.00 | 74 | 1013.3 |
| 20260505121004 | 69 | 135 | 10.0 | 17.0 | 0.00 | 0.00 | 0.00 | 74 | 1013.3 |
| 20260505120503 | 69 | 131 | 10.0 | 15.0 | 0.00 | 0.00 | 0.00 | 74 | 1013.3 |
| 20260505120213 | 69 | 136 | 11.0 | 15.0 | 0.00 | 0.00 | 0.00 | 74 | 1013.3 |
| 20260505115504 | 69 | 144 | 10.0 | 15.0 | 0.00 | 0.00 | 0.00 | 75 | 1013.3 |
| 20260505115003 | 69 | 148 | 10.0 | 13.0 | 0.00 | 0.00 | 0.00 | 75 | 1013.3 |
| 20260505114712 | 69 | 147 | 11.0 | 15.0 | 0.00 | 0.00 | 0.00 | 75 | 1013.3 |
| 20260505114003 | 69 | 148 | 12.0 | 21.0 | 0.00 | 0.00 | 0.00 | 75 | 1013.3 |
| 20260505113503 | 69 | 159 | 10.0 | 14.0 | 0.00 | 0.00 | 0.00 | 75 | 1013.3 |
| 20260505113216 | 68 | 147 | 13.0 | 17.0 | 0.00 | 0.00 | 0.00 | 75 | 1013.3 |
| 20260505112503 | 68 | 146 | 14.0 | 17.0 | 0.00 | 0.00 | 0.00 | 75 | 1013.3 |
| 20260505112003 | 69 | 153 | 11.0 | 19.0 | 0.00 | 0.00 | 0.00 | 75 | 1013.3 |
| 20260505111503 | 68 | 145 | 12.0 | 19.0 | 0.00 | 0.00 | 0.00 | 75 | 1013.3 |
| 20260505111003 | 68 | 146 | 14.0 | 18.0 | 0.00 | 0.00 | 0.00 | 75 | 1013.3 |
| 20260505110503 | 68 | 148 | 13.0 | 17.0 | 0.00 | 0.00 | 0.00 | 75 | 1013.3 |
| 20260505102004 | 68 | 146 | 13.0 | 19.0 | 0.00 | 0.00 | 0.00 | 77 | 1013.3 |
| 20260505101504 | 68 | 142 | 12.0 | 18.0 | 0.00 | 0.00 | 0.00 | 77 | 1013.3 |
| 20260505101004 | 68 | 142 | 12.0 | 16.0 | 0.00 | 0.00 | 0.00 | 77 | 1013.3 |
| 20260505100504 | 67 | 151 | 13.0 | 18.0 | 0.00 | 0.00 | 0.00 | 77 | 1013.3 |
| 20260505100004 | 67 | 145 | 14.0 | 18.0 | 0.00 | 0.00 | 0.00 | 77 | 1013.3 |
| 20260505095505 | 67 | 132 | 13.0 | 17.0 | 0.00 | 0.00 | 0.00 | 77 | 1013.3 |
| 20260505095004 | 67 | 141 | 12.0 | 17.0 | 0.00 | 0.00 | 0.00 | 77 | 1013.3 |
| 20260505094504 | 67 | 155 | 12.0 | 17.0 | 0.00 | 0.00 | 0.00 | 77 | 1013.3 |
| 20260505094003 | 67 | 151 | 11.0 | 17.0 | 0.00 | 0.00 | 0.00 | 77 | 1013.3 |
| 20260505093504 | 68 | 136 | 12.0 | 17.0 | 0.00 | 0.00 | 0.00 | 77 | 1013.3 |
| 20260505093004 | 68 | 142 | 13.0 | 17.0 | 0.00 | 0.00 | 0.00 | 77 | 1013.3 |
| 20260505092504 | 67 | 150 | 11.0 | 15.0 | 0.00 | 0.00 | 0.00 | 77 | 1013.3 |
| 20260505092004 | 67 | 145 | 11.0 | 15.0 | 0.00 | 0.00 | 0.00 | 78 | 1013.3 |
| 20260505091503 | 67 | 134 | 10.0 | 15.0 | 0.00 | 0.00 | 0.00 | 78 | 1013.3 |
| 20260505091215 | 67 | 111 | 10.0 | 15.0 | 0.00 | 0.00 | 0.00 | 78 | 1013.3 |
| 20260505090503 | 67 | 121 | 12.0 | 17.0 | 0.00 | 0.00 | 0.00 | 78 | 1013.3 |
| 20260505090003 | 67 | 133 | 12.0 | 17.0 | 0.00 | 0.00 | 0.00 | 78 | 1013.3 |
| 20260505085503 | 67 | 125 | 11.0 | 14.0 | 0.00 | 0.00 | 0.00 | 78 | 1014.3 |
| 20260505085003 | 67 | 122 | 11.0 | 15.0 | 0.00 | 0.00 | 0.00 | 78 | 1014.3 |
| 20260505084714 | 67 | 124 | 10.0 | 15.0 | 0.00 | 0.00 | 0.00 | 78 | 1014.3 |
| 20260505084003 | 67 | 122 | 10.0 | 14.0 | 0.00 | 0.00 | 0.00 | 79 | 1014.3 |
| 20260505083503 | 66 | 115 | 10.0 | 14.0 | 0.00 | 0.00 | 0.00 | 79 | 1014.3 |
| 20260505083213 | 66 | 119 | 9.0 | 12.0 | 0.00 | 0.00 | 0.00 | 79 | 1014.3 |
| 20260505082503 | 66 | 130 | 9.0 | 14.0 | 0.00 | 0.00 | 0.00 | 79 | 1014.3 |
| 20260505082003 | 66 | 128 | 10.0 | 18.0 | 0.00 | 0.00 | 0.00 | 80 | 1014.3 |
| 20260505081503 | 66 | 132 | 11.0 | 18.0 | 0.00 | 0.00 | 0.00 | 80 | 1014.3 |
| 20260505081003 | 66 | 131 | 13.0 | 17.0 | 0.00 | 0.00 | 0.00 | 81 | 1014.3 |
| 20260505080503 | 66 | 125 | 13.0 | 17.0 | 0.00 | 0.00 | 0.00 | 80 | 1014.3 |
| 20260505080216 | 66 | 122 | 13.0 | 18.0 | 0.00 | 0.00 | 0.00 | 81 | 1014.3 |
| 20260505075714 | 66 | 123 | 10.0 | 18.0 | 0.00 | 0.00 | 0.00 | 82 | 1014.3 |
| 20260505075003 | 66 | 107 | 9.0 | 15.0 | 0.00 | 0.00 | 0.00 | 82 | 1014.3 |
| 20260505074503 | 65 | 111 | 11.0 | 15.0 | 0.00 | 0.00 | 0.00 | 82 | 1014.3 |
| 20260505074003 | 65 | 125 | 10.0 | 13.0 | 0.00 | 0.00 | 0.00 | 82 | 1014.3 |
| 20260505073716 | 65 | 122 | 11.0 | 14.0 | 0.00 | 0.00 | 0.00 | 82 | 1014.3 |
| 20260505073003 | 64 | 109 | 11.0 | 14.0 | 0.00 | 0.00 | 0.00 | 83 | 1014.3 |
| 20260505072503 | 64 | 122 | 9.0 | 14.0 | 0.00 | 0.00 | 0.00 | 83 | 1014.3 |
| 20260505072003 | 64 | 129 | 8.0 | 11.0 | 0.00 | 0.00 | 0.00 | 83 | 1014.3 |
| 20260505071503 | 64 | 111 | 8.0 | 11.0 | 0.00 | 0.00 | 0.00 | 83 | 1014.3 |
| 20260505071003 | 64 | 105 | 8.0 | 11.0 | 0.00 | 0.00 | 0.00 | 83 | 1014.3 |
| 20260505070714 | 64 | 128 | 8.0 | 14.0 | 0.00 | 0.00 | 0.00 | 83 | 1014.3 |
| 20260505070004 | 63 | 121 | 10.0 | 15.0 | 0.00 | 0.00 | 0.00 | 83 | 1014.3 |
| 20260505065504 | 63 | 110 | 9.0 | 15.0 | 0.00 | 0.00 | 0.00 | 83 | 1014.3 |
| 20260505065004 | 63 | 111 | 9.0 | 14.0 | 0.00 | 0.00 | 0.00 | 83 | 1014.3 |
| 20260505064504 | 63 | 112 | 10.0 | 15.0 | 0.00 | 0.00 | 0.00 | 83 | 1014.3 |
| 20260505064219 | 63 | 103 | 10.0 | 15.0 | 0.00 | 0.00 | 0.00 | 82 | 1014.3 |
| 20260505063504 | 63 | 109 | 11.0 | 17.0 | 0.00 | 0.00 | 0.00 | 82 | 1014.3 |
| 20260505063215 | 63 | 121 | 10.0 | 17.0 | 0.00 | 0.00 | 0.00 | 82 | 1014.3 |
| 20260505062504 | 63 | 127 | 9.0 | 18.0 | 0.00 | 0.00 | 0.00 | 82 | 1013.3 |
| 20260505062004 | 63 | 111 | 10.0 | 18.0 | 0.00 | 0.00 | 0.00 | 82 | 1013.3 |
| 20260505061504 | 63 | 99 | 10.0 | 15.0 | 0.00 | 0.00 | 0.00 | 82 | 1013.3 |
| 20260505061004 | 63 | 101 | 12.0 | 16.0 | 0.00 | 0.00 | 0.00 | 82 | 1013.3 |
| 20260505060504 | 63 | 106 | 13.0 | 17.0 | 0.00 | 0.00 | 0.00 | 82 | 1013.3 |
| 20260505060004 | 63 | 93 | 13.0 | 19.0 | 0.00 | 0.00 | 0.00 | 82 | 1013.3 |
| 20260505055504 | 63 | 86 | 12.0 | 19.0 | 0.00 | 0.00 | 0.00 | 82 | 1013.3 |